| time (UTC) | temp F | wind direction | speed knots | gust knots | rain 1hr in | rain 24hr in | rain mn in | humidity % | barometer mb |
| 20260905223508 | 71 | 265 | 7.8 | 13.9 | 0.00 | 0.00 | 0.00 | 52 | 1021.7 |
| 20260905222508 | 71 | 265 | 7.0 | 12.2 | 0.00 | 0.00 | 0.00 | 52 | 1021.7 |
| 20260905221122 | 71 | 269 | 7.8 | 13.0 | 0.00 | 0.00 | 0.00 | 51 | 1021.7 |
| 20260905220507 | 71 | 269 | 7.8 | 13.0 | 0.00 | 0.00 | 0.00 | 51 | 1021.6 |
| 20260905215508 | 71 | 277 | 7.8 | 13.9 | 0.00 | 0.00 | 0.00 | 52 | 1021.5 |
| 20260905214121 | 70 | 271 | 8.7 | 14.8 | 0.00 | 0.00 | 0.00 | 53 | 1021.5 |
| 20260905213508 | 70 | 269 | 7.8 | 12.2 | 0.00 | 0.00 | 0.00 | 53 | 1021.5 |
| 20260905212508 | 70 | 270 | 8.7 | 13.0 | 0.00 | 0.00 | 0.00 | 54 | 1021.4 |
| 20260905211121 | 71 | 273 | 8.7 | 13.9 | 0.00 | 0.00 | 0.00 | 53 | 1021.4 |
| 20260905210508 | 71 | 268 | 9.6 | 14.8 | 0.00 | 0.00 | 0.00 | 53 | 1021.4 |
| 20260905205507 | 71 | 271 | 8.7 | 14.8 | 0.00 | 0.00 | 0.00 | 53 | 1021.4 |
| 20260905204122 | 70 | 273 | 7.8 | 16.5 | 0.00 | 0.00 | 0.00 | 54 | 1021.4 |
| 20260905203508 | 70 | 269 | 6.1 | 10.4 | 0.00 | 0.00 | 0.00 | 56 | 1021.4 |
| 20260905202508 | 70 | 272 | 6.1 | 10.4 | 0.00 | 0.00 | 0.00 | 56 | 1021.4 |
| 20260905201121 | 70 | 273 | 6.1 | 10.4 | 0.00 | 0.00 | 0.00 | 56 | 1021.3 |
| 20260905200507 | 71 | 268 | 7.8 | 12.2 | 0.00 | 0.00 | 0.00 | 55 | 1021.2 |
| 20260905195506 | 71 | 269 | 7.8 | 13.0 | 0.00 | 0.00 | 0.00 | 55 | 1021.2 |
| 20260905194121 | 71 | 271 | 7.8 | 14.8 | 0.00 | 0.00 | 0.00 | 55 | 1021.0 |
| 20260905193508 | 71 | 276 | 7.0 | 11.3 | 0.00 | 0.00 | 0.00 | 55 | 1021.0 |
| 20260905192508 | 71 | 278 | 7.0 | 13.0 | 0.00 | 0.00 | 0.00 | 55 | 1020.8 |
| 20260905191122 | 72 | 275 | 7.8 | 14.8 | 0.00 | 0.00 | 0.00 | 54 | 1020.7 |
| 20260905190508 | 72 | 274 | 7.8 | 16.5 | 0.00 | 0.00 | 0.00 | 54 | 1020.4 |
| 20260905185508 | 72 | 277 | 9.6 | 14.8 | 0.00 | 0.00 | 0.00 | 54 | 1020.3 |
| 20260905184121 | 72 | 285 | 7.8 | 13.9 | 0.00 | 0.00 | 0.00 | 53 | 1020.1 |
| 20260905183508 | 72 | 284 | 7.8 | 14.8 | 0.00 | 0.00 | 0.00 | 53 | 1020.0 |
| 20260905182508 | 73 | 283 | 7.8 | 13.0 | 0.00 | 0.00 | 0.00 | 52 | 1019.9 |
| 20260905181121 | 73 | 281 | 7.8 | 14.8 | 0.00 | 0.00 | 0.00 | 51 | 1019.7 |
| 20260905175508 | 74 | 274 | 7.8 | 14.8 | 0.00 | 0.00 | 0.00 | 50 | 1019.4 |
| 20260905174121 | 74 | 279 | 13.0 | 26.9 | 0.00 | 0.00 | 0.00 | 48 | 1019.2 |
| 20260905173508 | 74 | 287 | 13.9 | 22.6 | 0.00 | 0.00 | 0.00 | 48 | 1019.2 |
| 20260905172508 | 75 | 295 | 13.0 | 25.2 | 0.00 | 0.00 | 0.00 | 47 | 1019.1 |
| 20260905171122 | 75 | 302 | 13.9 | 23.5 | 0.00 | 0.00 | 0.00 | 46 | 1018.9 |
| 20260905170508 | 75 | 305 | 13.0 | 23.5 | 0.00 | 0.00 | 0.00 | 45 | 1018.7 |
| 20260905165508 | 76 | 301 | 11.3 | 20.0 | 0.00 | 0.00 | 0.00 | 45 | 1018.6 |
| 20260905164121 | 77 | 305 | 13.9 | 25.2 | 0.00 | 0.00 | 0.00 | 44 | 1018.4 |
| 20260905163508 | 77 | 304 | 13.0 | 26.1 | 0.00 | 0.00 | 0.00 | 43 | 1018.4 |
| 20260905162508 | 77 | 306 | 10.4 | 20.9 | 0.00 | 0.00 | 0.00 | 42 | 1018.2 |
| 20260905161121 | 78 | 311 | 11.3 | 20.9 | 0.00 | 0.00 | 0.00 | 41 | 1018.1 |
| 20260905160508 | 78 | 310 | 10.4 | 23.5 | 0.00 | 0.00 | 0.00 | 41 | 1018.1 |
| 20260905155509 | 78 | 305 | 11.3 | 23.5 | 0.00 | 0.00 | 0.00 | 41 | 1017.9 |
| 20260905154121 | 79 | 302 | 8.7 | 20.9 | 0.00 | 0.00 | 0.00 | 41 | 1017.9 |
| 20260905153508 | 79 | 304 | 10.4 | 23.5 | 0.00 | 0.00 | 0.00 | 41 | 1017.9 |
| 20260905152508 | 79 | 297 | 9.6 | 20.0 | 0.00 | 0.00 | 0.00 | 40 | 1018.1 |
| 20260905151121 | 80 | 290 | 7.0 | 17.4 | 0.00 | 0.00 | 0.00 | 39 | 1018.1 |
| 20260905150508 | 79 | 299 | 13.0 | 21.7 | 0.00 | 0.00 | 0.00 | 41 | 1018.1 |
| 20260905145508 | 78 | 297 | 11.3 | 22.6 | 0.00 | 0.00 | 0.00 | 42 | 1018.1 |
| 20260905144120 | 77 | 299 | 11.3 | 24.3 | 0.00 | 0.00 | 0.00 | 42 | 1018.2 |
| 20260905143508 | 77 | 308 | 8.7 | 21.7 | 0.00 | 0.00 | 0.00 | 42 | 1018.2 |
| 20260905142508 | 77 | 294 | 9.6 | 20.0 | 0.00 | 0.00 | 0.00 | 43 | 1018.4 |
| 20260905141121 | 77 | 294 | 14.8 | 26.1 | 0.00 | 0.00 | 0.00 | 42 | 1018.4 |
| 20260905140508 | 78 | 287 | 13.0 | 27.8 | 0.00 | 0.00 | 0.00 | 41 | 1018.4 |
| 20260905135508 | 78 | 304 | 13.9 | 30.4 | 0.00 | 0.00 | 0.00 | 40 | 1018.3 |
| 20260905134121 | 78 | 302 | 9.6 | 20.9 | 0.00 | 0.00 | 0.00 | 40 | 1018.4 |
| 20260905133508 | 78 | 293 | 14.8 | 25.2 | 0.00 | 0.00 | 0.00 | 40 | 1018.4 |
| 20260905132507 | 78 | 292 | 14.8 | 25.2 | 0.00 | 0.00 | 0.00 | 40 | 1018.6 |
| 20260905131121 | 78 | 300 | 16.5 | 27.8 | 0.00 | 0.00 | 0.00 | 39 | 1018.5 |
| 20260905130507 | 78 | 297 | 18.2 | 28.7 | 0.00 | 0.00 | 0.00 | 39 | 1018.3 |
| 20260905125508 | 78 | 298 | 16.5 | 26.9 | 0.00 | 0.00 | 0.00 | 40 | 1018.1 |
| 20260905124121 | 78 | 302 | 13.9 | 25.2 | 0.00 | 0.00 | 0.00 | 40 | 1018.1 |
| 20260905123508 | 76 | 307 | 15.6 | 29.5 | 0.00 | 0.00 | 0.00 | 41 | 1018.2 |
| 20260905122507 | 77 | 301 | 16.5 | 32.2 | 0.00 | 0.00 | 0.00 | 41 | 1018.3 |
| 20260905121121 | 76 | 317 | 13.9 | 25.2 | 0.00 | 0.00 | 0.00 | 42 | 1018.4 |
| 20260905120507 | 76 | 314 | 11.3 | 26.1 | 0.00 | 0.00 | 0.00 | 43 | 1018.4 |
| 20260905115507 | 76 | 329 | 11.3 | 29.5 | 0.00 | 0.00 | 0.00 | 43 | 1018.6 |
| 20260905114121 | 78 | 298 | 10.4 | 22.6 | 0.00 | 0.00 | 0.00 | 44 | 1018.6 |
| 20260905113507 | 76 | 314 | 7.8 | 16.5 | 0.00 | 0.00 | 0.00 | 47 | 1018.6 |
| 20260905112508 | 74 | 292 | 7.8 | 16.5 | 0.00 | 0.00 | 0.00 | 50 | 1018.8 |
| 20260905111121 | 73 | 301 | 8.7 | 18.2 | 0.00 | 0.00 | 0.00 | 52 | 1018.9 |
| 20260905110508 | 73 | 300 | 6.1 | 13.0 | 0.00 | 0.00 | 0.00 | 52 | 1019.1 |
| 20260905105507 | 71 | 291 | 7.8 | 13.9 | 0.00 | 0.00 | 0.00 | 54 | 1019.1 |
| 20260905103508 | 71 | 289 | 7.8 | 13.9 | 0.00 | 0.00 | 0.00 | 55 | 1019.3 |
| 20260905102508 | 70 | 296 | 7.0 | 13.0 | 0.00 | 0.00 | 0.00 | 56 | 1019.4 |
| 20260905101120 | 70 | 298 | 8.7 | 16.5 | 0.00 | 0.00 | 0.00 | 58 | 1019.4 |
| 20260905100508 | 70 | 288 | 10.4 | 19.1 | 0.00 | 0.00 | 0.00 | 58 | 1019.4 |
| 20260905095507 | 71 | 288 | 13.0 | 20.9 | 0.00 | 0.00 | 0.00 | 55 | 1019.2 |
| 20260905094121 | 71 | 300 | 13.9 | 22.6 | 0.00 | 0.00 | 0.00 | 53 | 1019.1 |
| 20260905093508 | 71 | 297 | 10.4 | 18.2 | 0.00 | 0.00 | 0.00 | 53 | 1019.3 |
| 20260905092508 | 71 | 291 | 8.7 | 17.4 | 0.00 | 0.00 | 0.00 | 53 | 1019.7 |
| 20260905091120 | 70 | 295 | 9.6 | 18.2 | 0.00 | 0.00 | 0.00 | 54 | 1020.0 |
| 20260905090507 | 70 | 307 | 6.1 | 17.4 | 0.00 | 0.00 | 0.00 | 54 | 1019.8 |
| 20260905085507 | 69 | 296 | 4.3 | 12.2 | 0.00 | 0.00 | 0.00 | 54 | 1020.0 |
| 20260905084120 | 69 | 310 | 5.2 | 14.8 | 0.00 | 0.00 | 0.00 | 54 | 1019.9 |
| 20260905083508 | 69 | 310 | 7.8 | 18.2 | 0.00 | 0.00 | 0.00 | 54 | 1020.0 |
| 20260905082508 | 68 | 311 | 7.8 | 17.4 | 0.00 | 0.00 | 0.00 | 53 | 1020.2 |
| 20260905081120 | 69 | 310 | 7.8 | 17.4 | 0.00 | 0.00 | 0.00 | 54 | 1020.0 |
| 20260905080508 | 68 | 319 | 7.8 | 14.8 | 0.00 | 0.00 | 0.00 | 54 | 1020.1 |
| 20260905075507 | 68 | 316 | 5.2 | 14.8 | 0.00 | 0.00 | 0.00 | 53 | 1020.1 |
| 20260905074120 | 68 | 334 | 8.7 | 17.4 | 0.00 | 0.00 | 0.00 | 52 | 1019.9 |
| 20260905073507 | 68 | 331 | 10.4 | 21.7 | 0.00 | 0.00 | 0.00 | 52 | 1019.9 |
| 20260905072507 | 68 | 335 | 8.7 | 19.1 | 0.00 | 0.00 | 0.00 | 51 | 1019.4 |
| 20260905071120 | 68 | 322 | 11.3 | 20.9 | 0.00 | 0.00 | 0.00 | 49 | 1019.4 |
| 20260905070507 | 69 | 321 | 13.9 | 30.4 | 0.00 | 0.00 | 0.00 | 48 | 1019.6 |
| 20260905065507 | 69 | 326 | 13.9 | 27.8 | 0.00 | 0.00 | 0.00 | 48 | 1019.4 |
| 20260905064120 | 70 | 337 | 9.6 | 20.0 | 0.00 | 0.00 | 0.00 | 48 | 1018.8 |
| 20260905063507 | 70 | 333 | 8.7 | 24.3 | 0.00 | 0.00 | 0.00 | 48 | 1018.6 |
| 20260905062508 | 71 | 329 | 10.4 | 20.0 | 0.00 | 0.00 | 0.00 | 49 | 1018.4 |
| 20260905061120 | 70 | 329 | 9.6 | 22.6 | 0.00 | 0.00 | 0.00 | 49 | 1018.1 |
| 20260905060507 | 70 | 328 | 12.2 | 21.7 | 0.00 | 0.00 | 0.00 | 50 | 1018.1 |
| 20260905055508 | 70 | 322 | 9.6 | 24.3 | 0.00 | 0.00 | 0.00 | 50 | 1017.6 |
| 20260905054121 | 70 | 333 | 8.7 | 19.1 | 0.00 | 0.00 | 0.00 | 51 | 1016.9 |
| 20260905053507 | 70 | 325 | 7.0 | 18.2 | 0.00 | 0.00 | 0.00 | 52 | 1016.8 |
| 20260905052508 | 70 | 339 | 7.8 | 24.3 | 0.00 | 0.00 | 0.00 | 53 | 1016.4 |
| 20260905051121 | 70 | 331 | 9.6 | 20.9 | 0.00 | 0.00 | 0.00 | 54 | 1016.2 |
| 20260905050508 | 70 | 324 | 10.4 | 22.6 | 0.00 | 0.00 | 0.00 | 54 | 1015.6 |
| 20260905045508 | 70 | 324 | 12.2 | 29.5 | 0.00 | 0.00 | 0.00 | 56 | 1014.8 |
| 20260905044120 | 71 | 326 | 11.3 | 27.8 | 0.00 | 0.00 | 0.00 | 58 | 1014.6 |
| 20260905043508 | 71 | 324 | 11.3 | 26.1 | 0.00 | 0.00 | 0.00 | 61 | 1015.0 |
| 20260905042508 | 73 | 341 | 14.8 | 30.4 | 0.00 | 0.00 | 0.00 | 58 | 1014.7 |
| 20260905041120 | 75 | 327 | 10.4 | 20.9 | 0.00 | 0.00 | 0.00 | 56 | 1014.4 |
| 20260905040508 | 78 | 313 | 13.9 | 26.9 | 0.00 | 0.00 | 0.00 | 50 | 1013.2 |
| 20260905035508 | 79 | 292 | 14.8 | 25.2 | 0.00 | 0.00 | 0.00 | 47 | 1012.5 |
| 20260905011117 | 72 | 280 | 7.8 | 11.3 | 0.00 | 0.00 | 0.00 | 58 | 1012.4 |
| 20260905010508 | 72 | 289 | 7.8 | 10.4 | 0.00 | 0.00 | 0.00 | 59 | 1012.4 |
| 20260905005507 | 72 | 296 | 5.2 | 8.7 | 0.00 | 0.00 | 0.00 | 60 | 1012.4 |
| 20260905004121 | 73 | 298 | 6.1 | 11.3 | 0.00 | 0.00 | 0.00 | 57 | 1012.3 |
| 20260905003508 | 74 | 294 | 8.7 | 12.2 | 0.00 | 0.00 | 0.00 | 56 | 1012.3 |
| 20260905002507 | 75 | 292 | 10.4 | 12.2 | 0.00 | 0.00 | 0.00 | 54 | 1012.1 |
| 20260905001120 | 73 | 295 | 7.8 | 12.2 | 0.00 | 0.00 | 0.00 | 56 | 1012.3 |
| 20260905000508 | 74 | 295 | 3.5 | 7.8 | 0.00 | 0.00 | 0.00 | 56 | 1012.3 |
| 20260904235507 | 71 | 305 | 5.2 | 8.7 | 0.00 | 0.00 | 0.00 | 62 | 1012.3 |
| 20260904234121 | 71 | 301 | 5.2 | 8.7 | 0.00 | 0.00 | 0.00 | 62 | 1012.2 |
| 20260904233508 | 72 | 297 | 5.2 | 7.8 | 0.00 | 0.00 | 0.00 | 63 | 1012.1 |
| 20260904232508 | 72 | 291 | 5.2 | 7.8 | 0.00 | 0.00 | 0.00 | 63 | 1012.2 |
| 20260904231508 | 72 | 291 | 6.1 | 7.8 | 0.00 | 0.00 | 0.00 | 61 | 1012.1 |
| 20260904230508 | 73 | 292 | 5.2 | 8.7 | 0.00 | 0.00 | 0.00 | 59 | 1012.1 |
| 20260904225508 | 72 | 298 | 6.1 | 9.6 | 0.00 | 0.00 | 0.00 | 61 | 1012.1 |
| 20260904224121 | 72 | 301 | 4.3 | 7.8 | 0.00 | 0.00 | 0.00 | 62 | 1012.1 |